Time,TemperatureF,DewpointF,PressureIn,WindDirection,WindDirectionDegrees,WindSpeedMPH,WindSpeedGustMPH,Humidity,HourlyPrecipIn,Conditions,Clouds,dailyrainin,SoftwareType,DateUTC
2013-12-15 00:04:00,34.9,34.6,29.47,West,270,10.9,-999.0,99,-99.99,,,0.00,Acu-Link.com,2013-12-15 05:04:00,
2013-12-15 00:19:00,34.7,34.4,29.47,NW,315,9.9,-999.0,99,-99.99,,,0.00,Acu-Link.com,2013-12-15 05:19:00,
2013-12-15 00:35:00,34.5,34.2,29.48,West,270,11.4,-999.0,99,-99.99,,,0.00,Acu-Link.com,2013-12-15 05:35:00,
2013-12-15 00:50:00,34.3,34.0,29.48,SW,225,12.5,-999.0,99,-99.99,,,0.00,Acu-Link.com,2013-12-15 05:50:00,
2013-12-15 01:05:00,34.2,33.9,29.48,East,90,8.3,-999.0,99,-99.99,,,0.00,Acu-Link.com,2013-12-15 06:05:00,
2013-12-15 01:20:00,34.0,33.7,29.49,WSW,247,6.8,-999.0,99,-99.99,,,0.00,Acu-Link.com,2013-12-15 06:20:00,
2013-12-15 01:36:00,34.0,33.7,29.49,West,270,14.5,-999.0,99,-99.99,,,0.00,Acu-Link.com,2013-12-15 06:36:00,
2013-12-15 01:51:00,34.0,33.7,29.50,SW,225,5.8,-999.0,99,-99.99,,,0.00,Acu-Link.com,2013-12-15 06:51:00,
2013-12-15 02:06:00,33.8,33.5,29.51,West,270,7.8,-999.0,99,-99.99,,,0.00,Acu-Link.com,2013-12-15 07:06:00,
2013-12-15 02:21:00,33.6,33.3,29.51,West,270,6.8,-999.0,99,-99.99,,,0.00,Acu-Link.com,2013-12-15 07:21:00,
2013-12-15 02:36:00,33.3,32.8,29.52,West,270,7.3,-999.0,98,-99.99,,,0.00,Acu-Link.com,2013-12-15 07:36:00,
2013-12-15 02:52:00,33.1,32.3,29.54,NW,315,4.2,-999.0,97,-99.99,,,0.00,Acu-Link.com,2013-12-15 07:52:00,
2013-12-15 03:07:00,32.2,31.4,29.54,NNW,337,13.0,-999.0,97,-99.99,,,0.00,Acu-Link.com,2013-12-15 08:07:00,
2013-12-15 03:22:00,32.0,31.2,29.54,East,90,5.8,-999.0,97,-99.99,,,0.00,Acu-Link.com,2013-12-15 08:22:00,
2013-12-15 03:37:00,32.0,31.2,29.55,West,270,7.8,-999.0,97,-99.99,,,0.00,Acu-Link.com,2013-12-15 08:37:00,
2013-12-15 03:52:00,31.8,31.0,29.55,East,90,7.8,-999.0,97,-99.99,,,0.00,Acu-Link.com,2013-12-15 08:52:00,
2013-12-15 04:08:00,31.8,30.8,29.56,West,270,6.3,-999.0,96,-99.99,,,0.00,Acu-Link.com,2013-12-15 09:08:00,
2013-12-15 04:23:00,31.5,30.2,29.56,WSW,247,14.5,-999.0,95,-99.99,,,0.00,Acu-Link.com,2013-12-15 09:23:00,
2013-12-15 04:38:00,31.3,29.8,29.57,North,0,16.1,-999.0,94,-99.99,,,0.00,Acu-Link.com,2013-12-15 09:38:00,
2013-12-15 04:54:00,31.1,29.1,29.58,West,270,12.5,-999.0,92,-99.99,,,0.00,Acu-Link.com,2013-12-15 09:54:00,
2013-12-15 05:09:00,31.1,29.1,29.58,NNW,337,9.4,-999.0,92,-99.99,,,0.00,Acu-Link.com,2013-12-15 10:09:00,
2013-12-15 05:24:00,30.9,29.1,29.59,NW,315,6.3,-999.0,93,-99.99,,,0.00,Acu-Link.com,2013-12-15 10:24:00,
2013-12-15 05:39:00,30.7,28.7,29.60,SSE,157,8.3,-999.0,92,-99.99,,,0.00,Acu-Link.com,2013-12-15 10:39:00,
2013-12-15 05:54:00,30.6,28.6,29.60,NW,315,11.4,-999.0,92,-99.99,,,0.00,Acu-Link.com,2013-12-15 10:54:00,
2013-12-15 06:10:00,30.2,28.2,29.61,WSW,247,9.9,-999.0,92,-99.99,,,0.00,Acu-Link.com,2013-12-15 11:10:00,
2013-12-15 06:25:00,30.0,28.2,29.61,NW,315,4.2,-999.0,93,-99.99,,,0.00,Acu-Link.com,2013-12-15 11:25:00,
2013-12-15 06:40:00,30.0,28.5,29.61,NE,45,6.3,-999.0,94,-99.99,,,0.00,Acu-Link.com,2013-12-15 11:40:00,
2013-12-15 06:55:00,29.8,28.0,29.62,NNW,337,6.8,-999.0,93,-99.99,,,0.00,Acu-Link.com,2013-12-15 11:55:00,
2013-12-15 07:11:00,29.7,27.9,29.63,West,270,5.3,-999.0,93,-99.99,,,0.00,Acu-Link.com,2013-12-15 12:11:00,
2013-12-15 07:26:00,29.5,27.7,29.63,East,90,6.8,-999.0,93,-99.99,,,0.00,Acu-Link.com,2013-12-15 12:26:00,
2013-12-15 07:41:00,29.5,27.7,29.64,NNW,337,3.2,-999.0,93,-99.99,,,0.00,Acu-Link.com,2013-12-15 12:41:00,
2013-12-15 07:56:00,29.3,27.8,29.64,North,0,7.3,-999.0,94,-99.99,,,0.00,Acu-Link.com,2013-12-15 12:56:00,
2013-12-15 08:11:00,29.3,27.8,29.65,East,90,3.7,-999.0,94,-99.99,,,0.00,Acu-Link.com,2013-12-15 13:11:00,
2013-12-15 08:27:00,29.3,27.8,29.66,West,270,7.3,-999.0,94,-99.99,,,0.00,Acu-Link.com,2013-12-15 13:27:00,
2013-12-15 08:42:00,29.3,28.0,29.67,West,270,5.3,-999.0,95,-99.99,,,0.00,Acu-Link.com,2013-12-15 13:42:00,
2013-12-15 08:57:00,29.3,28.0,29.67,WSW,247,4.2,-999.0,95,-99.99,,,0.00,Acu-Link.com,2013-12-15 13:57:00,
2013-12-15 09:12:00,29.5,28.5,29.68,WNW,292,4.7,-999.0,96,-99.99,,,0.00,Acu-Link.com,2013-12-15 14:12:00,
2013-12-15 09:27:00,29.8,28.5,29.67,West,270,3.7,-999.0,95,-99.99,,,0.00,Acu-Link.com,2013-12-15 14:27:00,
2013-12-15 09:43:00,29.8,28.5,29.68,SW,225,7.8,-999.0,95,-99.99,,,0.00,Acu-Link.com,2013-12-15 14:43:00,
2013-12-15 09:58:00,30.0,28.7,29.69,WSW,247,5.8,-999.0,95,-99.99,,,0.00,Acu-Link.com,2013-12-15 14:58:00,
2013-12-15 10:13:00,30.2,28.9,29.69,West,270,7.8,-999.0,95,-99.99,,,0.00,Acu-Link.com,2013-12-15 15:13:00,
2013-12-15 10:28:00,30.2,28.4,29.70,WSW,247,10.9,-999.0,93,-99.99,,,0.00,Acu-Link.com,2013-12-15 15:28:00,
2013-12-15 10:44:00,30.4,28.4,29.70,West,270,10.9,-999.0,92,-99.99,,,0.00,Acu-Link.com,2013-12-15 15:44:00,
2013-12-15 10:59:00,29.7,28.2,29.70,SW,225,11.4,-999.0,94,-99.99,,,0.00,Acu-Link.com,2013-12-15 15:59:00,
2013-12-15 11:14:00,29.5,27.2,29.70,WSW,247,13.5,-999.0,91,-99.99,,,0.00,Acu-Link.com,2013-12-15 16:14:00,
2013-12-15 11:29:00,29.8,27.0,29.70,SW,225,8.9,-999.0,89,-99.99,,,0.00,Acu-Link.com,2013-12-15 16:29:00,
2013-12-15 11:44:00,29.5,26.9,29.69,WSW,247,15.5,-999.0,90,-99.99,,,0.00,Acu-Link.com,2013-12-15 16:44:00,
2013-12-15 12:00:00,29.5,27.5,29.69,SW,225,9.4,-999.0,92,-99.99,,,0.00,Acu-Link.com,2013-12-15 17:00:00,
2013-12-15 12:15:00,29.5,27.7,29.68,West,270,11.9,-999.0,93,-99.99,,,0.00,Acu-Link.com,2013-12-15 17:15:00,
2013-12-15 12:30:00,30.0,28.0,29.68,WSW,247,12.5,-999.0,92,-99.99,,,0.00,Acu-Link.com,2013-12-15 17:30:00,
2013-12-15 12:45:00,29.8,26.7,29.68,WSW,247,16.1,-999.0,88,-99.99,,,0.00,Acu-Link.com,2013-12-15 17:45:00,
2013-12-15 13:00:00,29.7,26.9,29.68,West,270,20.2,-999.0,89,-99.99,,,0.00,Acu-Link.com,2013-12-15 18:00:00,
2013-12-15 13:16:00,29.8,26.1,29.67,SW,225,11.4,-999.0,86,-99.99,,,0.00,Acu-Link.com,2013-12-15 18:16:00,
2013-12-15 13:31:00,29.5,25.0,29.67,SW,225,13.0,-999.0,83,-99.99,,,0.00,Acu-Link.com,2013-12-15 18:31:00,
2013-12-15 13:46:00,29.5,25.6,29.66,West,270,14.5,-999.0,85,-99.99,,,0.00,Acu-Link.com,2013-12-15 18:46:00,
2013-12-15 14:01:00,29.8,25.9,29.66,West,270,10.4,-999.0,85,-99.99,,,0.00,Acu-Link.com,2013-12-15 19:01:00,
2013-12-15 14:17:00,29.8,26.1,29.67,WSW,247,6.3,-999.0,86,-99.99,,,0.00,Acu-Link.com,2013-12-15 19:17:00,
2013-12-15 14:32:00,29.8,26.7,29.66,SW,225,14.0,-999.0,88,-99.99,,,0.00,Acu-Link.com,2013-12-15 19:32:00,
2013-12-15 14:47:00,29.5,26.7,29.67,SW,225,11.9,-999.0,89,-99.99,,,0.00,Acu-Link.com,2013-12-15 19:47:00,
2013-12-15 15:02:00,29.3,25.9,29.67,WSW,247,13.5,-999.0,87,-99.99,,,0.00,Acu-Link.com,2013-12-15 20:02:00,
2013-12-15 15:17:00,29.7,26.3,29.68,West,270,7.3,-999.0,87,-99.99,,,0.00,Acu-Link.com,2013-12-15 20:17:00,
2013-12-15 15:33:00,29.7,26.6,29.69,SW,225,15.5,-999.0,88,-99.99,,,0.00,Acu-Link.com,2013-12-15 20:33:00,
2013-12-15 15:48:00,29.5,26.7,29.69,WSW,247,11.9,-999.0,89,-99.99,,,0.00,Acu-Link.com,2013-12-15 20:48:00,
2013-12-15 16:03:00,29.7,26.6,29.70,WSW,247,9.4,-999.0,88,-99.99,,,0.00,Acu-Link.com,2013-12-15 21:03:00,
2013-12-15 16:18:00,29.7,26.9,29.70,SW,225,17.6,-999.0,89,-99.99,,,0.00,Acu-Link.com,2013-12-15 21:18:00,
2013-12-15 16:33:00,29.1,27.1,29.73,West,270,12.5,-999.0,92,-99.99,,,0.00,Acu-Link.com,2013-12-15 21:33:00,
2013-12-15 16:49:00,29.1,26.8,29.73,WSW,247,9.4,-999.0,91,-99.99,,,0.00,Acu-Link.com,2013-12-15 21:49:00,
2013-12-15 17:04:00,29.1,26.8,29.73,SW,225,13.5,-999.0,91,-99.99,,,0.00,Acu-Link.com,2013-12-15 22:04:00,
2013-12-15 17:19:00,29.1,26.5,29.72,WSW,247,13.0,-999.0,90,-99.99,,,0.00,Acu-Link.com,2013-12-15 22:19:00,
2013-12-15 17:40:00,28.9,26.1,29.73,SW,225,10.4,-999.0,89,-99.99,,,0.00,Acu-Link.com,2013-12-15 22:40:00,
2013-12-15 17:55:00,28.9,26.3,29.73,SSW,202,12.5,-999.0,90,-99.99,,,0.00,Acu-Link.com,2013-12-15 22:55:00,
2013-12-15 18:10:00,28.9,26.3,29.73,WSW,247,13.0,-999.0,90,-99.99,,,0.00,Acu-Link.com,2013-12-15 23:10:00,
2013-12-15 18:25:00,28.9,26.3,29.73,WSW,247,9.9,-999.0,90,-99.99,,,0.00,Acu-Link.com,2013-12-15 23:25:00,
2013-12-15 18:41:00,28.9,26.1,29.72,SSW,202,9.9,-999.0,89,-99.99,,,0.00,Acu-Link.com,2013-12-15 23:41:00,
2013-12-15 18:56:00,28.9,26.3,29.72,SSW,202,15.5,-999.0,90,-99.99,,,0.00,Acu-Link.com,2013-12-15 23:56:00,
2013-12-15 19:11:00,28.9,26.3,29.72,SW,225,16.1,-999.0,90,-99.99,,,0.00,Acu-Link.com,2013-12-16 00:11:00,
2013-12-15 19:26:00,28.9,26.1,29.72,SW,225,14.5,-999.0,89,-99.99,,,0.00,Acu-Link.com,2013-12-16 00:26:00,
2013-12-15 19:42:00,28.9,26.3,29.74,West,270,10.4,-999.0,90,-99.99,,,0.00,Acu-Link.com,2013-12-16 00:42:00,
2013-12-15 19:57:00,28.9,26.3,29.74,SW,225,12.5,-999.0,90,-99.99,,,0.00,Acu-Link.com,2013-12-16 00:57:00,
2013-12-15 20:12:00,28.9,26.1,29.73,SW,225,8.9,-999.0,89,-99.99,,,0.00,Acu-Link.com,2013-12-16 01:12:00,
2013-12-15 20:27:00,28.9,26.1,29.75,SW,225,11.9,-999.0,89,-99.99,,,0.00,Acu-Link.com,2013-12-16 01:27:00,
2013-12-15 20:42:00,28.9,26.1,29.75,SW,225,10.9,-999.0,89,-99.99,,,0.00,Acu-Link.com,2013-12-16 01:42:00,
2013-12-15 20:58:00,28.9,26.3,29.76,West,270,9.4,-999.0,90,-99.99,,,0.00,Acu-Link.com,2013-12-16 01:58:00,
2013-12-15 21:13:00,28.9,26.3,29.75,West,270,6.8,-999.0,90,-99.99,,,0.00,Acu-Link.com,2013-12-16 02:13:00,
2013-12-15 21:28:00,28.9,26.6,29.76,SW,225,8.3,-999.0,91,-99.99,,,0.00,Acu-Link.com,2013-12-16 02:28:00,
2013-12-15 21:44:00,28.9,26.3,29.75,WSW,247,10.9,-999.0,90,-99.99,,,0.00,Acu-Link.com,2013-12-16 02:44:00,
2013-12-15 21:59:00,28.9,26.3,29.74,SW,225,10.4,-999.0,90,-99.99,,,0.00,Acu-Link.com,2013-12-16 02:59:00,
2013-12-15 22:14:00,28.9,26.3,29.75,SW,225,9.9,-999.0,90,-99.99,,,0.00,Acu-Link.com,2013-12-16 03:14:00,
2013-12-15 22:29:00,28.9,26.3,29.76,South,180,9.4,-999.0,90,-99.99,,,0.00,Acu-Link.com,2013-12-16 03:29:00,
2013-12-15 22:44:00,28.9,26.3,29.76,SW,225,13.5,-999.0,90,-99.99,,,0.00,Acu-Link.com,2013-12-16 03:44:00,
2013-12-15 23:00:00,28.9,26.3,29.76,SSW,202,11.9,-999.0,90,-99.99,,,0.00,Acu-Link.com,2013-12-16 04:00:00,
2013-12-15 23:15:00,28.9,26.6,29.76,WSW,247,7.8,-999.0,91,-99.99,,,0.00,Acu-Link.com,2013-12-16 04:15:00,
2013-12-15 23:30:00,28.9,26.6,29.76,SW,225,7.3,-999.0,91,-99.99,,,0.00,Acu-Link.com,2013-12-16 04:30:00,
2013-12-15 23:46:00,28.9,26.3,29.76,SW,225,9.4,-999.0,90,-99.99,,,0.00,Acu-Link.com,2013-12-16 04:46:00,